Voltar ao catálogo

FENGYUN 1C DEB

AtivoSSO
NORAD 31766·DEBRIS·🇨🇳 China

Lançado May 10, 1999 de Taiyuan Satellite Launch Center

Loading…

Próximas Passagens (próximas 24 horas)

TLE

AtualizadoSource: Space-Track

Época: Sep 14, 2026, 05:11 UTC

1 31766U 99025CFR 26257.21609234  .00000195  00000-0  14356-3 0  9994
2 31766  98.8296 252.6780 0073290 238.2762 121.1248 14.05406778679551

Acompanhe FENGYUN 1C DEB em tempo real com AllMySat

Download on the App Store